CAPE
0 0 20 339 539 481 484 852 633 464 208 260 619 591 543 893 1432 1465 1073 1155 1796 1469 1606 1485 1393 1377 1972 2266 2125 1926 1970 2034 2250
118 123 4 401 504 458 437 973 980 787 478 397 489 487 378 556 990 1590 1654 1143 1378 1461 1035 967 1061 1143 1375 2182 2267 2090 2215 2360 2424
109 277 15 403 503 494 462 757 1034 988 744 614 711 688 635 445 688 1109 1961 1661 1338 1443 1518 1166 1259 1015 1258 1725 2194 2351 2176 2064 2477
243 277 252 213 463 578 559 776 927 1233 1113 943 1113 986 1081 1008 784 940 1242 2055 1861 1479 1326 971 1562 2021 1614 1459 2061 2341 2302 2248 2426
0 0 182 93 86 442 601 763 958 1162 1409 1309 1481 1484 1658 1556 1618 1625 1365 1495 1911 1634 1540 1167 1353 2052 2284 2086 1975 2122 2590 2608 2675
27 135 98 92 14 125 499 618 982 1056 1557 1485 1512 1833 1854 2284 2224 2145 2007 1707 1641 1981 1773 1667 1100 2021 2332 2267 2418 2593 2680 2782 2643
53 67 44 85 334 444 150 461 762 948 1588 1630 1686 1803 1859 1844 2165 2306 2397 2239 2061 1735 1965 1826 1672 1859 1944 2490 2421 2533 2601 2921 2909
57 21 11 34 6 435 327 57 273 751 1591 1761 1886 1856 1939 1917 1858 2007 2169 2448 2400 2181 1645 1891 1678 1496 2179 1877 2321 2556 2362 2560 3003
102 67 102 64 278 410 711 930 132 295 1372 1698 1815 1770 1700 1732 1919 1913 1959 2037 2195 2323 2060 1619 1775 1702 1304 2001 2168 1956 2135 2468 2654
161 140 58 140 60 107 226 793 1030 342 464 1129 1618 1648 1604 1385 1227 1652 1723 1872 1824 2002 2226 1843 1828 1805 1681 1398 1642 1972 1671 2176 2661
82 131 24 29 0 0 0 392 735 1098 1299 821 969 1045 1292 917 711 1015 1345 1487 1612 1636 2033 2053 1908 2045 1928 1799 1673 1792 1314 1801 2859
122 32 0 0 0 21 81 165 389 1356 1505 1979 2079 2366 2534 2822 1487 877 645 776 1235 1581 1617 1890 1933 2008 2201 2089 1990 1472 1137 1299 2638
0 9 2 5 53 192 211 263 1288 2339 2543 2834 2736 2650 2497 2495 2622 3268 3232 1460 983 1162 1323 1449 1754 1782 2064 2291 2256 1522 972 1028 2379
0 73 64 384 390 587 551 299 650 1445 2372 2137 1904 1920 1832 1658 1832 2366 2520 3089 3604 2324 1846 1611 1351 1970 1525 2139 1813 234 21 253 1901
0 97 307 252 239 365 519 596 574 553 663 1212 1280 1660 1783 1512 1505 2328 2716 2650 2971 3556 3553 2906 2101 1062 0 0 0 0 0 2 9
0 182 241 320 402 405 591 616 744 777 765 834 1395 1615 1414 1383 1676 1079 49 998 3138 3821 3909 3560 1778 20 0 0 0 0 0 0 0
0 119 364 751 732 617 448 259 164 204 314 688 892 1038 1134 892 70 0 0 0 0 401 4091 3377 447 0 0 0 1 1 1 1 1
0 408 973 671 423 227 79 2 0 0 32 99 156 315 749 4 0 0 1 0 0 0 0 304 19 0 0 3 1 2 2 1 3
206 653 200 57 40 61 16 0 0 0 3 25 151 547 90 0 0 0 1 1 0 0 0 1 1 0 0 1 0 1 1 0 0
100 4 0 3 32 18 9 0 2 21 98 219 557 112 0 0 0 1 1 0 1 0 0 0 1 0 0 0 1 0 0 0 0
CIN
0 0 -74 -247 -246 -226 -276 -291 -292 -324 -447 -404 -318 -308 -319 -256 -194 -175 -191 -153 -100 -145 -135 -120 -118 -150 -111 -104 -111 -131 -136 -123 -94
-474 -525 -47 -277 -262 -213 -254 -294 -292 -341 -392 -385 -356 -338 -378 -343 -239 -168 -163 -214 -176 -140 -204 -203 -190 -164 -153 -119 -115 -129 -121 -109 -87
-680 -701 -340 -257 -244 -249 -238 -309 -309 -314 -370 -375 -363 -339 -355 -388 -330 -244 -159 -182 -197 -167 -133 -180 -157 -203 -203 -146 -118 -111 -122 -120 -83
-673 -797 -756 -605 -224 -227 -256 -311 -319 -317 -343 -336 -309 -331 -305 -304 -348 -304 -240 -169 -185 -193 -175 -228 -158 -154 -218 -209 -140 -123 -120 -111 -84
0 -5 -548 -418 -452 -207 -276 -335 -339 -358 -355 -344 -322 -328 -275 -277 -257 -255 -280 -246 -211 -231 -212 -249 -221 -175 -182 -205 -186 -157 -105 -94 -75
-588 -585 -530 -578 -288 -265 -272 -343 -346 -342 -363 -352 -359 -309 -290 -235 -234 -240 -251 -270 -243 -235 -210 -212 -321 -190 -183 -185 -169 -143 -126 -98 -97
-401 -527 -525 -630 -328 -408 -362 -309 -325 -371 -381 -382 -356 -346 -315 -308 -283 -277 -262 -260 -255 -261 -253 -224 -249 -259 -225 -177 -169 -153 -139 -103 -87
-318 -402 -642 -581 -171 -312 -405 -472 -446 -388 -373 -368 -366 -359 -328 -341 -333 -309 -294 -265 -266 -273 -305 -265 -264 -273 -235 -265 -200 -161 -193 -136 -88
-217 -291 -316 -346 -252 -277 -379 -384 -551 -490 -374 -405 -387 -380 -368 -360 -342 -326 -333 -317 -305 -284 -303 -343 -275 -294 -339 -254 -219 -203 -203 -161 -131
-195 -190 -300 -342 -374 -406 -360 -399 -553 -567 -512 -423 -400 -385 -368 -384 -419 -375 -379 -367 -349 -330 -305 -329 -318 -302 -311 -368 -306 -244 -290 -208 -133
-182 -282 -405 -502 0 0 0 -522 -486 -493 -477 -534 -579 -517 -441 -463 -492 -455 -389 -374 -364 -367 -348 -331 -357 -318 -317 -329 -358 -358 -447 -303 -118
-429 -513 0 0 0 -799 -609 -665 -617 -458 -443 -362 -322 -242 -198 -183 -379 -430 -510 -533 -434 -361 -329 -326 -327 -331 -321 -320 -313 -428 -523 -396 -131
0 -733 -66 -851 -826 -753 -735 -739 -537 -394 -359 -312 -287 -288 -300 -268 -231 -155 -159 -390 -456 -404 -389 -378 -347 -332 -325 -339 -290 -454 -615 -466 -178
-252 -634 -679 -530 -618 -617 -630 -736 -670 -507 -336 -376 -399 -377 -381 -418 -402 -310 -266 -205 -153 -257 -315 -363 -412 -349 -520 -381 -455 -898 -980 -800 -213
0 -430 -425 -538 -590 -597 -619 -592 -611 -631 -605 -545 -528 -439 -416 -473 -465 -328 -256 -257 -244 -158 -125 -205 -339 -688 0 0 0 0 0 -400 -345
0 -324 -383 -462 -461 -491 -528 -535 -487 -494 -529 -523 -408 -359 -399 -434 -394 -605 -98 -687 -212 -90 -63 -102 -441 -884 0 0 0 0 0 0 0
0 -270 -263 -327 -400 -432 -466 -623 -695 -686 -666 -481 -430 -397 -380 -482 -805 0 0 0 0 -917 -14 -92 -803 0 0 0 0 0 0 0 0
0 -181 -205 -287 -384 -500 -645 -453 0 0 -832 -724 -630 -497 -380 -201 0 0 0 0 0 0 0 -258 -1041 0 0 0 0 0 0 0 0
-143 -161 -354 -482 -588 -617 -687 0 0 0 -346 -705 -532 -338 -467 0 0 0 0 0 0 0 0 0 0 0 0 0 0 0 0 0 0
-199 -317 0 -499 -473 -504 -538 -1 0 -564 -496 -470 -313 -511 0 0 0 0 0 0 0 0 0 0 0 0 0 0 0 0 0 0 0
Wind_Speed
5 9 16 20 23 21 20 22 21 20 19 17 16 16 15 12 10 5 6 6 5 5 6 7 9 7 6 7 7 6 6 3 4
13 19 19 25 24 22 20 20 22 22 20 18 17 18 14 14 12 9 7 8 5 5 5 4 6 7 8 8 9 8 6 4 5
12 16 6 20 21 23 20 20 22 21 20 21 20 18 15 13 14 12 9 6 8 7 6 7 7 7 9 10 10 8 6 4 4
10 7 9 7 11 20 22 19 20 21 19 19 16 16 15 14 13 13 12 9 8 8 6 7 8 7 8 10 10 7 6 6 6
13 14 4 7 14 17 19 18 20 21 20 18 18 18 16 16 13 13 13 14 10 8 9 6 8 7 8 8 9 7 8 8 7
7 5 10 10 10 15 18 18 19 19 18 20 19 16 16 15 14 14 15 14 13 9 11 8 7 8 10 10 10 9 8 10 8
12 10 10 8 14 4 8 15 17 17 17 17 17 17 17 17 16 16 15 14 13 13 10 10 10 12 11 10 11 10 10 10 9
18 16 16 19 20 3 5 7 8 14 15 16 16 17 16 17 17 16 15 14 14 13 13 14 13 13 9 9 10 9 9 10 9
8 13 15 13 15 4 5 5 10 9 14 16 16 16 18 15 15 15 15 14 14 14 14 14 14 14 13 12 10 13 15 12 10
11 11 7 11 11 7 7 6 7 12 11 11 15 16 15 14 13 15 16 15 14 15 16 15 17 17 16 15 15 16 18 18 10
8 8 9 5 6 5 5 4 7 7 8 8 8 6 5 5 6 11 12 13 15 16 14 16 15 16 17 17 15 16 19 20 14
7 6 5 5 5 9 9 8 5 10 10 8 8 6 4 4 7 11 9 10 13 15 13 14 16 15 16 17 18 17 19 17 12
10 8 7 8 8 8 10 6 7 12 9 10 9 6 4 2 2 6 7 11 13 13 13 16 13 16 16 19 18 14 20 18 9
8 9 10 11 13 11 8 7 9 9 7 8 3 2 4 6 6 4 7 8 9 10 14 13 13 13 4 3 5 5 5 10 11
7 8 9 9 10 9 8 9 9 7 7 4 5 5 6 6 7 6 6 7 8 10 11 11 7 6 5 5 7 11 13 13 14
4 5 5 5 6 6 7 7 8 9 9 7 5 4 4 5 6 5 5 5 5 6 8 7 6 6 7 6 5 7 18 21 21
2 3 5 5 7 7 6 7 7 4 7 7 6 5 5 3 3 4 4 3 4 4 4 4 6 8 8 7 6 6 6 9 12
7 5 5 7 7 8 9 10 10 9 10 8 7 6 4 2 3 1 2 6 6 4 2 3 9 8 10 10 9 6 6 7 6
3 5 5 6 5 5 4 6 8 9 10 7 8 7 3 2 3 2 2 2 5 18 14 20 17 12 10 4 10 14 13 11 12
4 6 6 4 3 4 5 6 7 6 7 3 2 3 5 4 4 3 2 3 1 9 13 27 21 18 19 13 12 10 12 14 11
Wind_Direction
88 212 185 193 189 186 181 183 184 185 185 186 185 187 192 194 189 187 196 196 182 197 196 202 205 203 199 204 207 212 206 209 221
22 340 192 187 188 188 185 184 187 188 186 189 188 193 195 198 198 193 200 209 195 189 190 209 197 197 202 210 209 207 199 203 214
50 0 198 178 184 188 188 188 188 188 187 186 190 190 192 198 198 200 202 198 208 196 203 204 196 205 213 215 213 204 191 187 202
64 32 20 28 216 193 192 184 186 190 188 188 187 191 193 195 198 201 203 203 206 207 208 195 209 209 211 214 207 192 185 194 203
108 11 80 351 313 225 191 184 190 188 187 187 189 190 189 195 195 194 202 208 207 197 213 202 210 208 207 205 205 187 189 200 202
126 89 59 7 306 213 201 186 190 189 187 192 188 185 190 191 194 196 203 207 208 205 218 223 209 213 212 205 207 201 195 199 201
125 111 64 4 332 350 219 197 189 187 192 191 186 187 189 193 194 198 203 204 203 206 200 213 218 222 219 213 215 208 196 194 205
165 155 152 141 253 349 175 182 199 190 187 187 184 185 188 197 199 200 201 202 203 204 206 212 218 227 218 213 214 209 192 195 199
155 145 161 163 139 140 102 152 177 189 187 183 180 184 196 194 195 197 203 204 203 203 209 214 217 222 225 218 225 207 191 185 198
178 167 151 157 140 125 114 96 157 179 178 176 183 188 194 195 193 202 207 207 202 208 209 206 215 220 219 224 225 209 196 190 198
186 146 124 126 109 84 53 61 69 93 145 142 133 150 167 186 198 210 213 209 212 215 211 213 215 220 220 223 226 207 193 188 201
112 101 102 120 105 105 91 65 69 82 69 79 86 98 143 206 203 213 206 210 217 220 217 218 219 219 219 222 231 199 191 182 201
43 57 53 66 54 64 62 47 58 68 71 71 54 34 29 54 228 239 226 223 221 224 224 227 221 225 221 221 230 192 190 184 193
21 45 43 64 63 59 46 37 57 63 53 46 48 55 5 346 331 294 236 237 231 227 224 225 224 222 213 181 204 124 135 194 190
13 39 46 39 56 50 37 27 34 35 33 352 4 356 349 340 317 304 294 260 253 234 222 219 203 140 85 56 75 87 77 68 54
66 70 56 63 75 60 41 39 35 7 341 342 342 345 323 309 311 344 351 325 281 236 217 204 153 124 110 103 94 91 90 96 97
270 91 61 49 45 41 26 4 357 337 334 328 331 322 302 317 341 326 349 7 353 314 220 166 135 131 127 131 129 116 112 105 103
276 100 70 54 36 10 350 357 346 333 315 310 298 288 275 123 73 44 52 66 25 324 322 269 149 150 143 151 149 139 134 142 145
197 103 75 58 36 2 338 329 312 305 296 279 276 267 179 135 113 131 161 135 85 44 56 56 65 67 119 75 113 140 129 114 120
114 83 82 79 33 338 325 317 302 295 292 308 340 93 86 80 84 73 40 21 69 102 56 58 49 74 76 69 107 92 96 101 90